Location: Palmerston North
(40.3500°S, 175.6170°E)
Time: 12:11:46
(UTC+13:00)

AO-27 - Visible Passes

Search period start: 15 December 2024 00:00
Search period end: 25 December 2024 00:00
Orbit: 784 x 795 km, 98.8° (Epoch: 14 December)

Date Brightness Start Highest point End Pass type
(mag) Time Alt. Az. Time Alt. Az. Time Alt. Az.
15 Dec 10.2 00:38:47 10° SSW 00:41:20 14° WSW 00:43:51 10° W visible
15 Dec 8.1 22:27:51 10° SSE 22:32:49 42° E 22:35:06 27° NNE visible
16 Dec 9.6 00:07:49 10° SSW 00:12:00 25° WSW 00:15:49 11° WNW visible
16 Dec 9.0 21:58:53 10° SE 22:02:55 22° E 22:05:03 17° NE visible
16 Dec 8.6 23:37:34 10° S 23:42:31 44° WSW 23:45:46 20° NW visible
17 Dec 9.6 21:31:23 10° ESE 21:32:52 11° E 21:34:21 10° ENE visible
17 Dec 7.7 23:07:39 10° SSE 23:12:56 83° WSW 23:15:43 29° NNW visible
18 Dec 10.4 00:50:05 10° SW 00:51:30 11° WSW 00:52:55 10° WSW visible
18 Dec 7.9 22:38:04 10° SSE 22:43:12 52° E 22:45:40 29° NNE visible
19 Dec 9.9 00:18:28 10° SSW 00:22:14 20° WSW 00:25:58 10° WNW visible
19 Dec 8.7 22:08:53 10° SE 22:13:20 27° E 22:15:37 20° NE visible
19 Dec 9.0 23:48:03 10° S 23:52:48 36° WSW 23:56:19 16° NW visible
20 Dec 9.4 21:40:34 10° ESE 21:43:20 14° E 21:45:34 11° ENE visible
20 Dec 7.9 23:18:01 10° S 23:23:15 68° WSW 23:26:16 25° NNW visible
21 Dec 7.7 22:48:20 10° SSE 22:53:33 65° ENE 22:56:12 29° N visible
22 Dec 10.1 00:29:12 10° SSW 00:32:26 17° WSW 00:35:39 10° W visible
22 Dec 8.4 22:18:59 10° SSE 22:23:44 34° E 22:26:08 23° NE visible
22 Dec 9.3 23:58:33 10° S 00:03:03 30° WSW 00:06:51 13° WNW visible
23 Dec 9.2 21:50:15 10° SE 21:53:47 18° E 21:56:05 14° ENE visible
23 Dec 8.3 23:28:25 10° S 23:33:32 54° WSW 23:36:47 22° NW visible
24 Dec 7.6 22:58:36 10° SSE 23:03:54 81° ENE 23:06:43 28° N visible
